Broken Bow, NE

5:17 AM CST on February 26, 2017 (GMT -0600)
Broken Bow Municipal

Weather History for KBBW - August, 2013

Change the Weather History Date:

Friday, August 30, 2013

  Actual Average Record
Temperature  
Mean Temperature 78 °F 69 °F  
Max Temperature 92 °F 82 °F 102 °F (2012)
Min Temperature 63 °F 56 °F 37 °F (1915)
Degree Days  
Heating Degree Days 0 1  
Month to date heating degree days 1 7  
Since 1 June heating degree days 52 58  
Cooling Degree Days 13 5  
Month to date cooling degree days 231 218  
Year to date cooling degree days 674 692  
Since 1 June cooling degree days 639 658  
Growing Degree Days 28 (Base 50)    
Moisture  
Dew Point 67 °F    
Average Humidity 71    
Maximum Humidity 100    
Minimum Humidity 41    
Precipitation  
Precipitation 0.38 in 0.06 in 1.10 in (1937)
Sea Level Pressure  
Sea Level Pressure 29.94 in    
Wind  
Wind Speed 8 mph (NNE)    
Max Wind Speed 29 mph    
Max Gust Speed 37 mph    
Visibility 9 miles    
Events Rain , Thunderstorm    
T = Trace of Precipitation, MM = Missing Value Source: NWS Daily Summary

Daily Weather History Graph

Daily Weather History Graph

Search for Another Location

Airport or City:

Trip Planner

Search our weather history database for the weather conditions in past years. The results will help you decide how hot, cold, wet, or windy it might be!

Date:

Astronomy

Aug. 30, 2013 Rise Set
Actual Time 7:03 AM CDT 8:14 PM CDT
Civil Twilight 6:34 AM CDT 8:42 PM CDT
Nautical Twilight 6:00 AM CDT 9:16 PM CDT
Astronomical Twilight 5:24 AM CDT 9:52 PM CDT
Moon 1:40 AM CDT (8/30) 4:33 PM CDT (8/30)
Length of Visible Light 14h 08m
Length of Day
13h 11m
Waning Crescent, 29% of the Moon is Illuminated
Aug 30
Waning Crescent
Sep 5
New
Sep 12
First Quarter
Sep 19
Full
Sep 26
Last Quarter

Hourly Weather History & Observations

Time (CDT) Temp. Heat Index Dew Point Humidity Pressure Visibility Wind Dir Wind Speed Gust Speed Precip Events Conditions
12:53 AM 66.0 °F - 66.0 °F 100% 29.90 in 9.0 mi Calm Calm - N/A   Clear
1:53 AM 64.9 °F - 64.0 °F 97% 29.90 in 9.0 mi NNW 3.5 mph - N/A   Clear
2:53 AM 66.9 °F - 66.0 °F 97% 29.90 in 10.0 mi NNW 5.8 mph - N/A   Clear
3:53 AM 64.0 °F - 64.0 °F 100% 29.90 in 10.0 mi Calm Calm - N/A   Clear
4:53 AM 68.0 °F - 64.9 °F 90% 29.89 in 10.0 mi North 8.1 mph - N/A   Clear
5:53 AM 69.1 °F - 66.9 °F 93% 29.90 in 10.0 mi North 10.4 mph - N/A   Clear
6:53 AM 69.1 °F - 66.9 °F 93% 29.92 in 10.0 mi North 9.2 mph - N/A   Clear
7:53 AM 70.0 °F - 68.0 °F 93% 29.94 in 10.0 mi Calm Calm - N/A   Clear
8:53 AM 75.0 °F - 70.0 °F 84% 29.96 in 10.0 mi North 10.4 mph 16.1 mph N/A   Clear
9:53 AM 80.1 °F 83.6 °F 71.1 °F 74% 29.97 in 10.0 mi North 9.2 mph - N/A   Clear
10:53 AM 84.0 °F 88.4 °F 70.0 °F 63% 29.96 in 10.0 mi NNE 12.7 mph - N/A   Clear
11:53 AM 87.1 °F 90.6 °F 68.0 °F 53% 29.96 in 10.0 mi ENE 12.7 mph - N/A   Clear
12:53 PM 89.1 °F 91.3 °F 66.0 °F 46% 29.95 in 10.0 mi NE 12.7 mph - N/A   Clear
1:53 PM 90.0 °F 92.4 °F 66.0 °F 45% 29.95 in 10.0 mi NNE 9.2 mph - N/A   Clear
2:53 PM 91.0 °F 92.6 °F 64.0 °F 41% 29.93 in 10.0 mi NE 8.1 mph - N/A   Clear
3:53 PM 91.9 °F 94.5 °F 66.0 °F 42% 29.91 in 10.0 mi NE 6.9 mph - N/A   Clear
4:53 PM 91.0 °F 93.8 °F 66.0 °F 44% 29.89 in 10.0 mi ESE 9.2 mph - N/A   Clear
5:53 PM 90.0 °F 91.7 °F 64.9 °F 43% 29.88 in 10.0 mi ENE 4.6 mph - N/A   Clear
6:53 PM 87.1 °F 89.9 °F 66.9 °F 51% 29.88 in 10.0 mi East 5.8 mph - N/A   Clear
7:53 PM 78.1 °F - 68.0 °F 71% 29.88 in 10.0 mi East 4.6 mph - N/A   Clear
8:53 PM 75.0 °F - 68.0 °F 79% 29.88 in 10.0 mi East 4.6 mph - N/A   Clear
9:53 PM 75.0 °F - 69.1 °F 82% 29.91 in 10.0 mi Calm Calm - N/A   Clear
10:17 PM 73.4 °F - 69.8 °F 88% 30.01 in 10.0 mi West 11.5 mph - N/A Thunderstorm Clear
10:53 PM 69.1 °F - 66.9 °F 93% 30.02 in 6.0 mi WNW 24.2 mph 32.2 mph 0.03 in Rain , Thunderstorm Thunderstorms and Rain
11:24 PM 69.8 °F - 66.2 °F 88% 30.10 in 1.8 mi WNW 13.8 mph 35.7 mph 0.16 in Rain , Thunderstorm Heavy Thunderstorms and Rain
11:37 PM 68.0 °F - 66.2 °F 94% 30.10 in 3.0 mi NW 8.1 mph 23.0 mph 0.24 in Rain , Thunderstorm Thunderstorms and Rain
11:53 PM 69.1 °F - 64.0 °F 84% 30.02 in 7.0 mi WNW 16.1 mph 23.0 mph 0.27 in Rain , Thunderstorm Light Rain